Hourly Data Report for October 02, 2017

All times are specified in Local Standard Time (LST). Add 1 hour to adjust for Daylight Saving Time where and when it is observed.

AGASSIZ RCS
BRITISH COLUMBIA

49°14'35.000" N
121°45'37.000" W
19.30 m
1100119
71113
WZA

Download Data

Hourly Data (October 2017)
Hourly Data Report for October 2, 2017
Temp Definition
°C
Dew Point Temp Definition
°C
Rel Hum Definition
%
Wind Dir Definition
10's deg

Wind Spd Definition
km/h
Visibility Definition
km
Stn Press Definition
kPa
Hmdx Definition


Wind Chill Definition


Weather Definition


TIME
00:00 10.4 7.0 80 31 5   101.85     LegendNANA
01:00 9.5 7.5 87 28 3   101.85     LegendNANA
02:00 9.2 8.1 93 34 3   101.85     LegendNANA
03:00 8.5 7.6 94 20 5   101.86     LegendNANA
04:00 9.9 6.6 80 3 9   101.87     LegendNANA
05:00 10.5 6.8 78 6 9   101.89     LegendNANA
06:00 10.6 7.3 80 3 13   101.91     LegendNANA
07:00 11.1 7.3 78 3 12   101.94     LegendNANA
08:00 11.9 6.2 68 2 9   101.95     LegendNANA
09:00 13.9 5.4 57 28 10   101.96     LegendNANA
10:00 16.1 3.3 42 28 9   101.97     LegendNANA
11:00 16.5 1.0 35 27 9   101.99     LegendNANA
12:00 17.5 1.5 34 27 8   102.00     LegendNANA
13:00 18.2 1.4 32 23 9   102.00     LegendNANA
14:00 18.8 1.0 30 24 9   101.99     LegendNANA
15:00 18.6 -0.1 28 30 7   101.99     LegendNANA
16:00 18.9 0.6 29 29 5   101.99     LegendNANA
17:00 18.4 -1.1 27 30 8   102.01     LegendNANA
18:00 16.8 0.1 32 32 11   102.08     LegendNANA
19:00 14.4 0.8 40 7 6   102.18     LegendNANA
20:00 16.1 -1.3 30 31 14   102.27     LegendNANA
21:00 16.1 -1.7 30 33 12   102.31     LegendNANA
22:00 15.5 -1.4 31 30 15   102.32     LegendNANA
23:00 15.1 -1.6 32 31 10   102.33     LegendNANA

Notes on Data Quality.

Legend

  • E = Estimated
  • M = Missing
  • NA = Not Available
  • ‡ = Partner data that is not subject to review by the National Climate Archives
Date modified: